RH
62 68 81 82 59 48 51 48 42 49 51 48 53 48 53 66 55 64 78 69 68 72 70 74 72 72 76 76 60 72 71 47 74 71 65 67 68 71 68 74 75 75 70 72 72 70 70 71 68
75 83 81 84 52 46 50 44 46 45 44 48 51 58 59 63 78 74 78 66 66 71 74 76 73 71 72 73 57 72 59 62 54 58 67 72 69 72 67 72 70 65 74 79 78 79 76 76 75
73 81 84 65 61 50 50 48 42 44 47 51 58 65 67 66 78 72 63 60 65 68 69 72 69 67 69 72 50 59 55 64 61 63 65 70 58 56 68 56 54 69 77 76 78 74 72 68 63
68 80 76 56 52 49 49 46 46 48 50 59 56 60 73 73 70 61 56 60 66 67 69 61 63 66 67 71 53 70 62 66 67 76 64 55 64 75 71 64 54 65 73 74 77 67 68 64 47
68 73 62 58 54 49 47 45 46 47 55 57 58 63 71 71 60 56 59 62 67 61 62 87 65 61 64 73 60 71 65 63 63 67 68 70 64 59 64 67 65 68 68 72 71 69 70 62 50
65 66 54 69 54 51 46 49 54 57 64 64 57 60 82 78 59 58 60 63 68 56 54 70 58 52 65 70 67 69 62 67 66 66 68 65 58 65 70 75 74 52 63 69 69 71 70 69 69
59 63 65 60 56 52 49 53 52 54 57 58 58 59 94 86 60 61 61 63 56 50 53 68 65 68 70 70 64 63 71 70 71 71 73 73 70 67 57 53 46 41 65 70 72 75 70 70 68
69 63 60 53 53 54 48 55 57 53 64 66 60 63 78 84 62 62 61 58 59 50 53 66 65 75 87 75 69 68 62 68 65 70 70 63 69 71 58 42 38 39 60 72 75 72 66 66 65
64 65 62 55 50 52 52 54 60 63 60 60 72 64 73 61 64 62 64 68 55 50 58 75 72 73 79 70 70 66 62 65 60 63 65 50 42 52 88 55 54 45 50 68 72 69 66 62 61
70 74 67 78 67 48 47 52 61 56 56 72 81 76 58 58 70 86 84 77 50 51 63 73 65 67 71 72 67 67 70 60 54 54 49 50 62 68 65 69 72 67 61 60 67 65 62 61 65
69 72 74 79 70 58 49 50 55 55 52 65 65 82 71 78 92 95 90 68 53 52 64 62 65 66 67 60 59 61 53 54 57 57 59 67 72 74 74 73 72 73 73 64 61 59 61 61 60
66 72 72 80 76 66 57 60 53 53 49 61 70 75 79 84 88 82 72 61 54 53 60 61 66 68 64 60 50 48 54 55 60 61 60 58 67 67 64 61 64 64 67 68 71 69 67 62 59
64 74 82 84 77 70 69 60 50 52 61 66 74 78 79 82 80 64 68 60 52 61 57 62 66 66 62 68 70 67 60 58 58 62 63 65 66 63 55 64 65 65 65 66 68 68 66 61 58
77 76 83 84 83 70 66 60 49 59 63 71 73 72 76 78 78 71 67 67 65 62 58 59 65 64 63 64 68 72 67 61 61 63 63 62 61 58 60 64 62 62 62 62 64 64 64 62 58
74 78 74 88 93 75 76 62 54 62 62 68 70 72 75 75 81 72 64 66 53 52 56 57 64 69 67 68 74 69 63 60 62 64 63 62 62 68 63 62 61 62 63 61 62 59 57 59 56
66 66 78 83 94 84 73 65 59 62 60 63 68 71 74 75 78 80 63 66 54 66 74 65 69 71 71 68 73 64 64 74 74 69 63 69 67 65 59 58 62 64 64 64 61 57 56 59 57
67 74 77 87 90 92 75 64 68 64 56 59 64 68 69 74 77 81 70 67 65 61 75 77 76 71 68 71 71 70 72 74 75 70 69 72 67 58 63 64 62 62 62 61 56 56 57 58 58
57 75 73 83 88 92 78 79 67 66 64 63 60 65 67 68 68 72 70 66 69 67 65 72 73 74 73 73 74 71 74 69 72 72 66 68 68 63 66 61 61 62 59 60 58 56 57 57 58
40 68 68 79 85 87 91 79 69 66 62 60 61 64 65 64 63 71 76 66 66 69 70 73 73 73 74 75 77 73 76 72 74 73 71 67 71 71 62 61 58 62 60 58 61 56 56 54 56
51 67 76 79 82 87 93 79 74 68 63 61 61 62 63 62 66 70 68 67 61 60 65 72 73 73 74 71 70 72 72 74 77 78 77 68 68 73 72 63 64 63 60 59 59 59 53 54 55
53 55 76 73 84 81 90 88 84 90 85 70 58 56 56 58 62 68 70 69 62 63 62 69 68 75 73 72 70 72 73 73 78 75 75 71 72 68 74 70 66 65 62 54 60 62 57 52 57
50 51 61 79 73 82 83 88 88 91 81 73 60 57 54 56 61 62 67 66 59 59 62 69 68 72 73 72 72 70 68 76 74 77 74 76 76 72 79 67 69 68 67 60 57 69 64 57 58
53 54 60 62 67 72 84 86 71 82 80 70 64 61 53 52 56 58 64 63 56 58 60 66 70 70 73 72 73 71 70 69 72 73 75 72 72 75 80 74 68 65 69 66 58 63 70 67 62
55 57 61 62 68 74 57 70 59 77 66 61 63 62 59 52 56 57 59 68 60 58 60 66 68 67 72 71 68 74 73 70 70 71 72 72 73 70 70 69 71 72 68 71 70 65 66 66 67
52 55 66 71 69 63 65 74 53 50 52 50 56 64 62 57 55 60 70 74 57 56 57 61 64 63 65 68 66 70 73 70 69 67 70 69 68 69 70 73 74 72 66 66 70 72 67 65 63
49 34 46 62 68 59 68 65 48 47 48 47 50 62 57 59 55 58 67 57 51 51 56 58 60 59 59 59 63 72 71 71 70 70 72 72 72 72 72 76 78 75 76 72 71 67 69 63 66
54 48 41 45 48 47 48 49 48 50 52 54 50 59 59 58 55 54 64 64 48 50 52 56 58 58 59 60 66 64 64 70 70 71 71 71 70 73 73 75 76 75 77 78 76 72 69 65 63
48 44 54 47 54 54 40 51 53 74 80 60 55 57 57 58 61 55 52 63 49 49 49 52 58 56 58 61 61 59 62 69 72 73 72 71 71 70 65 67 72 75 69 72 75 75 70 68 70
52 50 48 40 44 41 40 42 73 86 86 67 54 50 49 59 60 54 46 44 44 48 50 51 54 56 56 58 62 60 60 62 64 65 67 71 68 70 66 71 75 74 76 74 76 75 75 76 78
35 33 40 38 38 39 39 35 68 81 79 79 65 58 52 55 62 50 51 47 44 46 48 49 51 54 53 54 56 57 60 63 63 62 62 69 72 72 73 68 67 71 71 76 78 76 78 75 77
Wind_Speed
2 3 3 2 1 3 5 5 5 12 11 7 12 4 4 6 3 9 22 17 21 18 17 13 11 10 10 11 11 13 14 17 17 17 18 18 17 17 15 16 15 13 15 16 16 17 16 15 16
3 4 3 1 3 6 4 5 11 9 12 14 8 11 4 6 6 21 22 21 19 15 14 12 10 9 10 12 11 15 14 16 16 16 16 15 15 14 14 14 14 16 16 16 16 16 15 15 16
3 4 3 2 2 4 5 5 12 8 16 11 7 7 4 5 16 21 22 25 16 14 14 12 11 9 10 12 13 15 16 15 14 15 14 14 14 15 14 12 13 15 14 15 16 16 15 15 14
2 2 1 2 7 3 2 11 17 16 12 3 13 9 8 11 12 18 27 19 15 14 12 10 9 9 10 11 14 14 15 14 14 14 13 13 13 13 12 13 14 15 14 14 15 16 17 16 15
1 1 2 4 4 3 7 16 13 10 6 8 2 7 11 11 14 23 20 16 12 12 11 9 8 8 10 12 13 13 13 12 13 13 13 13 13 12 13 13 12 13 13 13 14 15 15 17 18
1 0 3 2 5 6 9 9 9 8 8 9 15 16 7 9 19 22 17 15 12 10 9 8 8 8 9 11 12 12 13 13 13 13 13 13 12 12 12 12 11 11 12 13 14 15 15 16 16
1 1 3 4 8 6 5 8 8 9 10 9 17 10 7 13 20 18 16 13 11 9 8 8 10 10 10 11 12 12 12 13 13 13 14 13 12 12 11 11 11 12 13 13 14 14 14 13 13
3 1 6 4 10 3 7 4 11 8 5 14 13 6 10 18 22 19 16 14 11 10 10 10 11 10 10 11 12 12 12 12 13 13 14 13 14 13 13 13 13 13 13 11 10 11 12 12 12
1 2 6 5 8 6 10 7 4 5 16 7 0 14 17 25 23 19 17 14 11 11 12 12 11 11 9 11 11 11 11 12 13 14 13 15 16 16 14 15 14 14 12 10 10 9 9 10 10
3 3 4 4 2 7 9 14 6 8 14 6 13 18 24 23 21 17 16 14 13 13 14 12 11 11 11 10 11 12 12 13 14 14 16 17 17 16 16 14 13 12 11 10 8 8 8 8 8
2 3 6 6 5 9 11 10 4 14 8 8 26 24 24 21 17 14 13 13 13 14 14 14 12 13 11 11 11 11 13 13 13 14 16 16 14 12 12 9 7 7 6 7 8 7 6 5 7
3 5 4 3 6 6 7 3 12 11 3 14 22 26 24 19 16 15 14 14 15 16 15 15 15 15 13 11 11 12 13 13 13 13 13 13 11 9 7 7 8 7 6 6 5 4 4 5 7
3 5 6 5 6 9 3 4 6 11 8 22 22 22 21 18 15 14 13 14 15 16 16 15 15 14 13 12 12 12 12 12 12 12 11 10 7 6 6 8 10 9 7 6 6 5 5 6 10
5 8 9 7 6 7 4 2 9 10 20 22 24 22 20 18 16 15 15 15 14 16 16 16 16 15 15 13 11 11 11 11 11 10 9 7 5 7 9 10 10 9 8 6 4 4 5 8 10
10 5 6 9 7 5 7 6 9 17 24 23 23 21 19 18 16 16 15 15 15 17 17 17 18 16 15 12 11 12 14 12 10 10 9 8 8 8 9 8 7 7 5 3 1 3 6 10 13
3 3 3 5 6 5 6 11 7 21 26 25 22 21 19 20 17 13 15 16 16 20 19 20 19 15 14 13 13 12 10 9 9 9 8 8 9 8 7 7 7 5 5 5 6 8 10 11 11
2 3 3 4 2 3 6 4 1 22 26 24 23 21 20 17 17 16 15 19 19 20 20 20 18 15 15 14 12 11 9 9 8 10 8 8 7 7 8 8 7 5 6 8 9 10 10 10 9
3 4 2 3 3 2 2 6 4 21 22 25 24 20 19 19 21 20 18 18 19 20 21 19 17 15 15 14 12 10 9 9 10 9 8 8 7 7 7 7 6 5 5 6 7 7 7 6 3
4 4 6 3 3 4 3 4 10 19 19 19 21 20 20 22 19 17 18 19 19 20 21 21 18 16 16 18 16 13 10 10 10 9 9 8 6 6 6 5 6 4 3 4 4 6 6 4 4
4 6 5 4 6 1 2 2 6 7 16 20 24 23 23 20 18 20 21 22 23 21 22 21 19 17 16 19 17 14 12 11 9 7 6 9 7 4 5 5 5 4 2 1 1 1 2 2 2
3 2 2 2 7 2 4 3 4 3 5 11 23 25 25 23 23 22 24 25 24 25 23 22 20 19 17 19 17 15 14 13 11 10 7 8 7 5 5 5 6 5 3 2 3 3 2 1 1
5 4 9 9 7 1 1 3 6 10 11 11 17 23 26 26 24 24 25 27 28 26 24 23 21 20 19 18 19 18 16 14 12 9 9 9 9 7 6 7 5 5 4 5 5 2 2 2 2
1 6 9 7 3 3 5 3 2 10 18 17 18 22 27 28 26 26 28 30 29 27 25 24 23 22 22 19 16 17 15 14 12 11 10 8 9 8 9 5 7 7 6 6 6 6 3 2 1
13 8 5 4 2 3 6 6 4 9 27 23 25 23 25 28 27 27 28 26 29 29 26 25 25 23 24 23 19 16 16 15 12 12 11 10 9 9 9 8 7 9 7 7 8 8 6 5 3
5 7 2 3 4 1 6 6 9 10 10 28 30 29 27 28 29 27 25 26 32 32 28 25 25 23 26 28 24 20 15 16 14 14 11 11 10 11 11 11 12 10 10 10 9 8 9 9 8
13 11 3 3 3 2 4 5 1 9 7 25 35 38 31 28 30 29 30 33 34 33 31 28 26 23 23 25 26 22 20 17 15 16 14 14 13 14 13 13 13 12 11 11 11 12 10 10 10
6 9 2 0 0 3 2 4 5 14 11 1 24 27 29 31 32 33 30 32 36 34 33 30 26 26 25 25 26 24 22 20 17 15 15 13 13 15 16 17 15 15 16 13 12 12 14 12 10
3 8 4 4 3 2 4 3 4 15 14 7 10 26 31 26 27 32 34 30 36 34 32 30 28 25 26 28 27 25 23 22 18 16 17 17 14 15 16 16 16 15 15 16 14 14 14 15 13
4 4 2 4 3 2 3 3 5 8 10 9 11 20 25 24 28 35 37 37 37 36 35 33 29 27 26 27 27 26 25 24 23 22 17 16 17 15 13 14 15 17 15 18 17 13 14 15 14
3 3 8 6 2 1 3 1 4 4 7 10 3 11 19 23 27 36 39 38 38 40 37 36 32 30 27 23 24 25 25 23 24 24 23 20 17 16 15 14 15 17 19 17 18 15 13 13 13
Wind_Direction
29 6 2 94 155 102 108 141 119 141 156 156 153 150 97 61 19 107 143 149 145 135 137 129 124 121 124 119 112 117 112 111 110 106 103 104 104 100 98 98 96 95 94 93 93 92 87 88 87
33 21 30 65 94 128 111 134 141 156 152 145 110 125 41 67 77 132 143 154 147 138 134 128 127 127 119 112 109 119 117 113 111 107 108 105 103 99 101 97 99 103 101 94 91 86 88 84 86
35 28 21 50 96 110 121 124 140 143 144 142 117 89 67 88 120 138 154 154 151 146 137 137 128 126 117 111 114 119 117 108 108 106 105 105 99 95 97 100 103 109 104 93 89 83 87 91 85
27 28 44 67 103 63 76 136 132 130 136 91 125 78 77 115 126 151 155 158 153 151 140 132 125 120 116 112 117 112 113 110 108 105 104 104 103 99 94 94 102 112 104 96 91 89 86 83 85
38 318 76 94 76 54 105 134 141 128 108 127 123 113 109 141 146 152 156 157 154 148 145 132 132 123 125 121 119 120 112 109 108 107 108 106 103 98 96 96 103 117 110 101 93 89 81 80 80
184 307 86 92 95 96 107 124 109 97 117 121 114 121 116 144 151 156 159 158 157 155 145 132 131 132 131 127 123 118 113 109 106 109 108 108 107 103 109 108 111 117 118 107 94 90 86 82 75
82 84 101 113 121 116 126 120 117 121 127 111 135 117 136 150 158 158 159 158 157 157 150 136 131 127 134 136 129 123 118 114 116 113 108 104 107 110 107 109 104 111 119 110 103 93 90 82 74
103 98 133 114 151 119 146 88 126 126 86 127 126 150 158 164 158 160 161 162 160 156 154 139 136 140 137 139 133 130 121 116 114 113 109 112 107 107 106 100 102 108 121 115 107 97 90 82 72
74 88 136 119 160 136 144 119 77 119 135 116 357 144 152 155 159 161 164 166 163 151 148 144 141 137 140 139 135 132 128 122 121 120 115 113 111 106 98 100 97 102 119 129 120 103 89 76 64
44 64 72 2 62 132 139 131 122 141 149 95 112 134 149 157 163 165 167 168 165 157 155 153 145 142 143 143 141 145 141 133 124 119 116 114 113 105 99 95 86 91 103 116 119 109 92 73 49
71 87 140 51 75 116 138 134 105 150 181 174 152 150 159 162 168 172 170 171 165 162 159 157 150 149 146 142 141 143 139 140 130 122 119 117 111 102 97 90 84 92 102 109 114 112 95 67 48
85 91 108 134 36 93 114 128 138 159 249 162 159 157 160 166 171 174 173 171 169 165 159 157 150 151 149 139 133 134 138 139 135 128 127 124 123 113 93 91 93 106 117 112 110 98 66 53 49
94 126 87 104 57 72 39 141 147 205 138 152 154 160 164 167 167 166 166 170 170 163 162 156 150 151 149 144 137 135 134 135 139 133 127 126 121 109 87 96 97 106 113 111 100 90 83 74 78
90 103 105 59 32 42 21 142 172 166 153 156 160 169 175 174 172 167 167 172 172 168 164 157 152 150 146 141 143 139 143 139 137 137 136 136 115 109 103 103 102 104 114 118 120 108 95 79 88
130 79 82 40 26 348 338 186 204 163 163 166 173 176 180 183 182 180 172 173 169 164 161 159 156 152 151 143 148 138 134 133 132 134 135 128 124 113 112 110 111 121 122 121 139 134 121 105 99
97 80 117 351 146 279 300 212 168 168 169 171 178 182 189 192 191 190 183 178 170 165 157 158 159 161 160 152 149 148 156 149 145 145 140 130 130 122 116 125 118 109 95 81 96 119 125 116 118
79 111 110 132 22 243 231 212 162 182 180 176 180 187 192 192 198 203 197 194 183 177 170 166 163 160 158 159 159 158 159 168 148 140 143 140 132 133 131 135 133 119 82 77 111 115 112 110 119
165 150 145 199 162 205 124 286 171 187 184 182 183 190 194 199 202 202 203 200 195 192 187 186 182 176 176 174 172 173 165 160 161 161 157 156 134 134 144 145 142 131 90 75 97 128 116 105 122
187 158 157 143 233 60 326 306 161 185 196 193 190 191 199 207 205 203 204 205 201 201 199 197 198 193 195 193 187 178 166 155 158 157 167 172 151 145 160 154 158 153 122 77 79 97 129 100 97
188 158 156 124 151 107 350 235 166 183 198 200 195 195 206 208 205 208 208 208 204 203 205 206 204 201 196 190 186 183 180 172 165 172 172 183 180 166 162 172 180 185 171 129 54 52 74 157 136
198 98 138 127 143 160 154 290 182 222 250 210 206 205 209 207 208 209 210 210 210 210 209 205 205 201 192 192 193 194 196 195 192 205 191 180 191 195 188 180 198 214 226 252 255 265 281 303 227
199 135 153 145 165 229 274 251 204 181 220 216 202 208 211 212 214 213 211 212 214 214 215 213 206 205 204 201 208 205 204 206 205 210 205 204 206 204 201 201 205 216 236 243 237 235 238 260 273
174 151 136 135 143 177 194 278 244 191 221 221 212 210 213 215 213 212 214 212 213 216 216 216 214 212 213 214 207 205 216 213 222 231 221 216 210 211 209 212 232 240 235 239 238 232 223 220 280
134 127 104 119 155 221 179 213 208 191 214 206 210 215 212 212 214 216 217 214 214 218 220 220 218 219 213 218 221 223 226 222 227 221 230 231 226 222 225 235 247 240 239 238 237 235 238 245 257
169 176 191 201 215 217 162 198 260 237 239 216 197 205 209 211 212 212 208 208 215 218 219 221 220 220 216 219 225 223 222 230 235 232 236 239 240 238 242 249 246 252 256 255 252 246 248 251 254
192 209 238 266 208 194 173 241 50 311 281 223 210 201 203 208 212 211 211 214 218 218 218 217 217 217 212 214 214 220 228 234 241 233 245 244 249 252 254 257 253 256 249 253 261 257 257 257 253
171 209 349 248 177 247 201 251 207 19 21 125 199 191 201 206 212 213 213 215 220 219 217 217 216 216 213 213 219 229 230 233 239 242 243 248 257 251 259 253 255 255 253 257 267 262 252 253 260
219 139 189 223 209 55 274 276 328 351 340 326 193 199 207 210 215 217 220 215 222 221 218 218 220 219 218 220 223 230 233 231 238 245 246 257 265 267 257 252 251 253 248 251 259 261 256 257 259
152 176 163 284 271 282 256 120 1 323 323 319 241 217 216 216 212 221 226 225 221 223 219 218 221 221 220 224 226 228 231 238 243 247 253 256 259 255 247 252 259 249 249 249 257 263 256 258 252
274 258 189 243 202 269 310 115 28 356 351 344 333 223 223 224 213 222 227 225 220 223 224 221 221 224 223 223 226 231 235 239 242 246 248 253 258 244 254 262 260 252 253 250 252 256 260 255 257